THY1ZY LTFM-LBSF

Flight info

Callsign THY1ZY
Flight time 0h 56m
Altitude 38000
Route VADEN1E/36 VADEN N618 BAKLO T889 DEDIN
Aircraft A333/H-SDE3GHIJ2J3J5M1RVWXY/LB2D1

Departure

Time 2026-05-05 16:00
Airport İstanbul Airport (LTFM)

Arrival

Time 2026-05-05 16:57
Airport Sofia Airport (LBSF)
Time Latitude Longitude Altitude Speed Heading
2026-05-05 15:43 41.27507 28.75068 304 ft 0 kts 359°
2026-05-05 15:47 41.27496 28.75068 307 ft 3 kts 359°
2026-05-05 15:47 41.27484 28.75068 305 ft 3 kts 359°
2026-05-05 15:47 41.27459 28.75069 305 ft 3 kts 359°
2026-05-05 15:47 41.27441 28.75069 306 ft 3 kts 359°
2026-05-05 15:48 41.27429 28.75069 306 ft 3 kts
2026-05-05 15:48 41.27410 28.75065 305 ft 3 kts 37°
2026-05-05 15:48 41.27398 28.75046 307 ft 1 kts 72°
2026-05-05 15:48 41.27398 28.75045 307 ft 0 kts 72°
2026-05-05 15:51 41.27398 28.75047 307 ft 1 kts 72°
2026-05-05 15:51 41.27401 28.75058 307 ft 0 kts 72°
2026-05-05 15:54 41.27402 28.75063 307 ft 2 kts 72°
2026-05-05 15:55 41.27403 28.75065 307 ft 2 kts 72°
2026-05-05 15:55 41.27410 28.75111 309 ft 11 kts 83°
2026-05-05 15:55 41.27414 28.75266 302 ft 26 kts 92°
2026-05-05 15:55 41.27264 28.75368 306 ft 33 kts 179°
2026-05-05 15:56 41.27083 28.75370 310 ft 24 kts 178°
2026-05-05 15:56 41.26916 28.75372 314 ft 26 kts 180°
2026-05-05 15:56 41.26748 28.75374 316 ft 19 kts 179°
2026-05-05 15:56 41.26673 28.75380 317 ft 4 kts 169°
2026-05-05 15:57 41.26648 28.75389 315 ft 5 kts 159°
2026-05-05 15:57 41.26637 28.75416 315 ft 0 kts 107°
2026-05-05 15:58 41.26633 28.75454 315 ft 10 kts 89°
2026-05-05 15:58 41.26695 28.75552 317 ft 20 kts 33°
2026-05-05 15:59 41.26828 28.75658 310 ft 16 kts
2026-05-05 15:59 41.26859 28.75659 310 ft 1 kts 359°
2026-05-05 15:59 41.26964 28.75658 307 ft 30 kts 360°
2026-05-05 15:59 41.27278 28.75654 302 ft 77 kts
2026-05-05 16:00 41.27934 28.75661 281 ft 136 kts
2026-05-05 16:00 41.29052 28.75610 547 ft 174 kts 353°
2026-05-05 16:00 41.30182 28.74902 1350 ft 187 kts 318°
2026-05-05 16:00 41.31009 28.73621 2621 ft 177 kts 308°
2026-05-05 16:01 41.31668 28.72275 3758 ft 173 kts 302°
2026-05-05 16:01 41.32243 28.70765 4328 ft 193 kts 296°
2026-05-05 16:01 41.32677 28.68960 4703 ft 214 kts 285°
2026-05-05 16:01 41.32835 28.66952 5383 ft 221 kts 275°
2026-05-05 16:02 41.32823 28.64896 6112 ft 221 kts 285°
2026-05-05 16:02 41.33357 28.63028 6833 ft 215 kts 304°
2026-05-05 16:02 41.34158 28.61353 7580 ft 215 kts 309°
2026-05-05 16:02 41.35022 28.59710 8371 ft 218 kts 310°
2026-05-05 16:03 41.35903 28.58059 9389 ft 220 kts 310°
2026-05-05 16:03 41.36790 28.56392 10384 ft 221 kts 310°
2026-05-05 16:03 41.37686 28.54705 11263 ft 225 kts 311°
2026-05-05 16:03 41.38596 28.52989 12117 ft 229 kts 311°
2026-05-05 16:04 41.39520 28.51244 12962 ft 232 kts 311°
2026-05-05 16:04 41.40456 28.49472 13835 ft 236 kts 311°
2026-05-05 16:04 41.41408 28.47670 14570 ft 240 kts 310°
2026-05-05 16:04 41.42375 28.45839 15308 ft 244 kts 310°
2026-05-05 16:05 41.43358 28.43975 15989 ft 247 kts 310°
2026-05-05 16:05 41.44350 28.42092 16594 ft 249 kts 310°
2026-05-05 16:05 41.45352 28.40188 17160 ft 252 kts 310°
2026-05-05 16:05 41.46367 28.38260 17752 ft 255 kts 310°
2026-05-05 16:06 41.47379 28.36335 18339 ft 258 kts 310°
2026-05-05 16:06 41.48412 28.34370 18845 ft 260 kts 310°
2026-05-05 16:06 41.49458 28.32379 19310 ft 264 kts 309°
2026-05-05 16:06 41.50516 28.30364 19804 ft 267 kts 309°
2026-05-05 16:07 41.51586 28.28324 20297 ft 270 kts 309°
2026-05-05 16:07 41.52669 28.26258 20790 ft 273 kts 309°
2026-05-05 16:07 41.53761 28.24171 21257 ft 276 kts 308°
2026-05-05 16:07 41.54870 28.22054 21719 ft 280 kts 308°
2026-05-05 16:08 41.55990 28.19912 22207 ft 281 kts 309°
2026-05-05 16:08 41.57106 28.17774 22802 ft 281 kts 309°
2026-05-05 16:08 41.58230 28.15622 23289 ft 284 kts 308°
2026-05-05 16:08 41.59371 28.13439 23720 ft 288 kts 308°
2026-05-05 16:09 41.60522 28.11234 23951 ft 291 kts 308°
2026-05-05 16:09 41.61689 28.08995 23986 ft 294 kts 308°
2026-05-05 16:09 41.62861 28.06743 23990 ft 295 kts 308°
2026-05-05 16:09 41.64034 28.04487 23992 ft 296 kts 308°
2026-05-05 16:10 41.65209 28.02227 23993 ft 296 kts 308°
2026-05-05 16:10 41.66369 27.99993 23987 ft 296 kts 308°
2026-05-05 16:10 41.67558 27.97702 23985 ft 296 kts 308°
2026-05-05 16:10 41.68730 27.95443 23992 ft 296 kts 308°
2026-05-05 16:11 41.69888 27.93210 23993 ft 296 kts 308°
2026-05-05 16:11 41.73402 27.86422 23988 ft 296 kts 308°
2026-05-05 16:12 41.74574 27.84156 23989 ft 296 kts 308°
2026-05-05 16:12 41.76521 27.80385 23990 ft 296 kts 308°
2026-05-05 16:13 41.80027 27.73584 23986 ft 296 kts 308°
2026-05-05 16:13 41.81196 27.71314 23973 ft 296 kts 309°
2026-05-05 16:13 41.82360 27.69051 23978 ft 294 kts 308°
2026-05-05 16:14 41.84667 27.64560 23983 ft 292 kts 308°
2026-05-05 16:14 41.86969 27.60072 23977 ft 292 kts 308°
2026-05-05 16:15 41.89269 27.55585 23980 ft 292 kts 308°
2026-05-05 16:15 41.91568 27.51090 23971 ft 292 kts 308°
2026-05-05 16:16 41.93850 27.46623 23971 ft 292 kts 308°
2026-05-05 16:16 41.96140 27.42130 23971 ft 291 kts 309°
2026-05-05 16:17 41.98424 27.37648 23967 ft 291 kts 309°
2026-05-05 16:17 41.99567 27.35402 23974 ft 291 kts 308°
2026-05-05 16:18 42.01979 27.30672 23961 ft 325 kts 308°
2026-05-05 16:18 42.03290 27.28097 23958 ft 342 kts 308°
2026-05-05 16:18 42.06113 27.22573 23961 ft 373 kts 310°
2026-05-05 16:19 42.07758 27.19786 23942 ft 387 kts 313°
2026-05-05 16:19 42.09547 27.16993 23950 ft 400 kts 314°
2026-05-05 16:19 42.13404 27.11250 23951 ft 426 kts 315°
2026-05-05 16:20 42.17473 27.05219 23953 ft 440 kts 315°
2026-05-05 16:20 42.21558 26.99083 23957 ft 439 kts 314°
2026-05-05 16:21 42.25623 26.92934 23964 ft 439 kts 314°
2026-05-05 16:22 42.31698 26.83721 23946 ft 440 kts 314°
2026-05-05 16:22 42.35762 26.77545 23947 ft 440 kts 314°
2026-05-05 16:23 42.39826 26.71358 23949 ft 440 kts 314°
2026-05-05 16:23 42.41855 26.68264 23938 ft 440 kts 314°
2026-05-05 16:23 42.45918 26.62059 23940 ft 440 kts 314°
2026-05-05 16:24 42.47948 26.58954 23942 ft 440 kts 314°
2026-05-05 16:24 42.49976 26.55847 23941 ft 440 kts 314°
2026-05-05 16:24 42.53404 26.48962 23920 ft 447 kts 295°
2026-05-05 16:25 42.54262 26.44896 23939 ft 452 kts 282°
2026-05-05 16:25 42.54877 26.36371 23935 ft 456 kts 275°
2026-05-05 16:25 42.54990 26.32119 23936 ft 457 kts 274°
2026-05-05 16:26 42.55143 26.23502 23931 ft 457 kts 274°
2026-05-05 16:26 42.55333 26.14887 23938 ft 457 kts 275°
2026-05-05 16:27 42.55446 26.10575 23928 ft 456 kts 275°
2026-05-05 16:27 42.55564 26.06282 23936 ft 456 kts 275°
2026-05-05 16:27 42.55685 26.01965 23934 ft 456 kts 275°
2026-05-05 16:27 42.55805 25.97674 23925 ft 456 kts 275°
2026-05-05 16:28 42.55924 25.93371 23929 ft 456 kts 275°
2026-05-05 16:28 42.56041 25.89069 23926 ft 456 kts 275°
2026-05-05 16:28 42.56155 25.84766 23923 ft 456 kts 275°
2026-05-05 16:28 42.56267 25.80460 23927 ft 456 kts 275°
2026-05-05 16:29 42.56377 25.76157 23918 ft 456 kts 275°
2026-05-05 16:29 42.56486 25.71855 23929 ft 456 kts 275°
2026-05-05 16:29 42.56592 25.67615 23931 ft 456 kts 275°
2026-05-05 16:29 42.56697 25.63314 23930 ft 456 kts 275°
2026-05-05 16:30 42.56802 25.58957 23930 ft 456 kts 275°
2026-05-05 16:30 42.56902 25.54720 23931 ft 456 kts 275°
2026-05-05 16:30 42.57004 25.50364 23930 ft 456 kts 275°
2026-05-05 16:30 42.57102 25.46063 23931 ft 456 kts 275°
2026-05-05 16:31 42.57198 25.41827 23927 ft 456 kts 275°
2026-05-05 16:31 42.57294 25.37522 23926 ft 456 kts 275°
2026-05-05 16:31 42.57388 25.33222 23926 ft 456 kts 275°
2026-05-05 16:31 42.57480 25.28925 23928 ft 456 kts 275°
2026-05-05 16:32 42.57571 25.24626 23922 ft 456 kts 275°
2026-05-05 16:32 42.57661 25.20320 23923 ft 456 kts 275°
2026-05-05 16:32 42.57749 25.16014 23925 ft 456 kts 275°
2026-05-05 16:32 42.57835 25.11719 23929 ft 456 kts 275°
2026-05-05 16:33 42.57919 25.07416 23930 ft 456 kts 275°
2026-05-05 16:33 42.58002 25.03109 23929 ft 456 kts 275°
2026-05-05 16:33 42.58083 24.98803 23934 ft 456 kts 275°
2026-05-05 16:33 42.58163 24.94497 23918 ft 456 kts 275°
2026-05-05 16:34 42.58242 24.90193 23921 ft 456 kts 275°
2026-05-05 16:34 42.58318 24.85891 23924 ft 456 kts 275°
2026-05-05 16:34 42.58393 24.81597 23924 ft 456 kts 275°
2026-05-05 16:34 42.58466 24.77294 23925 ft 456 kts 275°
2026-05-05 16:35 42.58537 24.72993 23927 ft 456 kts 275°
2026-05-05 16:35 42.58607 24.68680 23927 ft 456 kts 275°
2026-05-05 16:35 42.58675 24.64383 23928 ft 456 kts 275°
2026-05-05 16:35 42.58742 24.60083 23923 ft 456 kts 274°
2026-05-05 16:36 42.58806 24.55792 23929 ft 455 kts 274°
2026-05-05 16:36 42.58869 24.51492 23924 ft 455 kts 274°
2026-05-05 16:36 42.58931 24.47202 23938 ft 455 kts 274°
2026-05-05 16:36 42.58992 24.42904 23935 ft 455 kts 274°
2026-05-05 16:37 42.59050 24.38660 23929 ft 455 kts 274°
2026-05-05 16:37 42.59107 24.34311 23930 ft 455 kts 274°
2026-05-05 16:37 42.59161 24.30074 23935 ft 455 kts 274°
2026-05-05 16:37 42.59215 24.25779 23932 ft 455 kts 274°
2026-05-05 16:38 42.59268 24.21485 23934 ft 455 kts 274°
2026-05-05 16:38 42.59319 24.17196 23939 ft 454 kts 274°
2026-05-05 16:38 42.59368 24.12910 23943 ft 454 kts 274°
2026-05-05 16:38 42.59459 24.08625 23945 ft 452 kts 279°
2026-05-05 16:39 42.59978 24.04448 23946 ft 449 kts 284°
2026-05-05 16:39 42.60579 24.00301 23946 ft 448 kts 285°
2026-05-05 16:39 42.61212 23.96151 23935 ft 448 kts 285°
2026-05-05 16:39 42.61844 23.92028 23944 ft 447 kts 285°
2026-05-05 16:40 42.62476 23.87882 23936 ft 446 kts 285°
2026-05-05 16:40 42.63004 23.83728 23942 ft 448 kts 280°
2026-05-05 16:40 42.63506 23.79584 23867 ft 441 kts 289°
2026-05-05 16:40 42.64618 23.75728 23449 ft 436 kts 299°
2026-05-05 16:41 42.66013 23.72065 22770 ft 435 kts 301°
2026-05-05 16:41 42.67447 23.68454 22125 ft 432 kts 301°
2026-05-05 16:41 42.68846 23.64912 21508 ft 429 kts 301°
2026-05-05 16:41 42.70243 23.61344 20872 ft 427 kts 301°
2026-05-05 16:42 42.71625 23.57791 20217 ft 424 kts 300°
2026-05-05 16:42 42.72996 23.54248 19438 ft 423 kts 300°
2026-05-05 16:42 42.74360 23.50714 18677 ft 421 kts 300°
2026-05-05 16:42 42.75717 23.47189 17864 ft 420 kts 300°
2026-05-05 16:43 42.77051 23.43651 17005 ft 419 kts 297°
2026-05-05 16:43 42.78002 23.39917 16166 ft 417 kts 283°
2026-05-05 16:43 42.78387 23.36078 15383 ft 404 kts 277°
2026-05-05 16:43 42.78616 23.32289 14468 ft 399 kts 276°
2026-05-05 16:44 42.78824 23.28534 12970 ft 397 kts 276°
2026-05-05 16:44 42.79031 23.24823 11732 ft 387 kts 275°
2026-05-05 16:44 42.79231 23.21264 10909 ft 368 kts 275°
2026-05-05 16:44 42.79420 23.17897 10545 ft 345 kts 275°
2026-05-05 16:45 42.79602 23.14662 10483 ft 341 kts 275°
2026-05-05 16:45 42.79784 23.11458 10190 ft 338 kts 275°
2026-05-05 16:45 42.79966 23.08250 9388 ft 344 kts 275°
2026-05-05 16:45 42.80147 23.05063 9018 ft 335 kts 275°
2026-05-05 16:46 42.80323 23.01960 8827 ft 322 kts 275°
2026-05-05 16:46 42.80495 22.98941 8673 ft 309 kts 275°
2026-05-05 16:46 42.80655 22.96112 8508 ft 297 kts 275°
2026-05-05 16:46 42.80808 22.93358 8374 ft 286 kts 275°
2026-05-05 16:47 42.80957 22.90695 8130 ft 280 kts 275°
2026-05-05 16:47 42.81104 22.88048 7569 ft 280 kts 274°
2026-05-05 16:47 42.80992 22.85445 7135 ft 272 kts 258°
2026-05-05 16:47 42.80356 22.83140 6990 ft 253 kts 239°
2026-05-05 16:48 42.79243 22.81405 6987 ft 238 kts 218°
2026-05-05 16:48 42.77787 22.80391 6985 ft 236 kts 195°
2026-05-05 16:48 42.76110 22.80215 6975 ft 251 kts 172°
2026-05-05 16:48 42.74457 22.81014 6972 ft 257 kts 147°
2026-05-05 16:49 42.73221 22.82742 6973 ft 258 kts 116°
2026-05-05 16:49 42.72809 22.85083 6984 ft 256 kts 94°
2026-05-05 16:49 42.72743 22.87486 6977 ft 256 kts 90°
2026-05-05 16:49 42.72723 22.89920 6977 ft 256 kts 91°
2026-05-05 16:50 42.72651 22.92336 6978 ft 256 kts 93°
2026-05-05 16:50 42.72525 22.94756 6982 ft 256 kts 94°
2026-05-05 16:50 42.72377 22.97169 6983 ft 256 kts 95°
2026-05-05 16:50 42.72202 22.99568 6982 ft 256 kts 95°
2026-05-05 16:51 42.72043 23.01989 6982 ft 256 kts 94°
2026-05-05 16:51 42.71898 23.04405 6905 ft 257 kts 94°
2026-05-05 16:51 42.71760 23.06824 6641 ft 256 kts 94°
2026-05-05 16:51 42.71617 23.09246 6273 ft 258 kts 94°
2026-05-05 16:52 42.71467 23.11694 5839 ft 262 kts 95°
2026-05-05 16:52 42.71317 23.14171 5423 ft 264 kts 94°
2026-05-05 16:52 42.71168 23.16633 5057 ft 264 kts 94°
2026-05-05 16:52 42.71020 23.19099 4723 ft 251 kts 94°
2026-05-05 16:53 42.70887 23.21323 4441 ft 226 kts 94°
2026-05-05 16:53 42.70766 23.23333 4164 ft 201 kts 94°
2026-05-05 16:53 42.70658 23.25129 3913 ft 181 kts 94°
2026-05-05 16:53 42.70558 23.26758 3687 ft 166 kts 95°
2026-05-05 16:54 42.70468 23.28261 3471 ft 154 kts 95°
2026-05-05 16:54 42.70383 23.29656 3268 ft 143 kts 95°
2026-05-05 16:54 42.70304 23.30966 3099 ft 136 kts 95°
2026-05-05 16:54 42.70225 23.32241 2919 ft 135 kts 95°
2026-05-05 16:55 42.70148 23.33522 2740 ft 136 kts 95°
2026-05-05 16:55 42.70076 23.34812 2587 ft 137 kts 96°
2026-05-05 16:55 42.69993 23.36105 2372 ft 137 kts 93°
2026-05-05 16:55 42.69905 23.37375 2132 ft 131 kts 95°
2026-05-05 16:56 42.69837 23.38601 1980 ft 129 kts 94°
2026-05-05 16:56 42.69763 23.39810 1803 ft 127 kts 95°
2026-05-05 16:56 42.69693 23.40978 1746 ft 115 kts 95°
2026-05-05 16:56 42.69640 23.41849 1755 ft 77 kts 95°
2026-05-05 16:57 42.69593 23.42445 1743 ft 43 kts 104°
2026-05-05 16:57 42.69473 23.42735 1748 ft 25 kts 152°
2026-05-05 16:57 42.69415 23.42721 1748 ft 0 kts 232°
2026-05-05 16:57 42.69414 23.42720 1748 ft 0 kts 232°
2026-05-05 16:58 42.69409 23.42697 1745 ft 10 kts 259°
2026-05-05 16:58 42.69409 23.42581 1746 ft 25 kts 274°
2026-05-05 16:59 42.69361 23.42423 1746 ft 17 kts 199°
2026-05-05 16:59 42.69225 23.42287 1749 ft 34 kts 251°
2026-05-05 16:59 42.69152 23.41956 1747 ft 33 kts 253°
2026-05-05 16:59 42.69092 23.41683 1746 ft 26 kts 253°
2026-05-05 17:00 42.69040 23.41536 1754 ft 7 kts 251°
2026-05-05 17:00 42.69039 23.41530 1745 ft 0 kts 253°